This demonstration page uses our WeatherBlox Daily Observations layout. Learn more.

Left ArrowRight Arrow

38.83388, -104.82136

Hourly Observations for April 5, 2017

Temp ( °F °C ) Dew Point ( °F °C ) Humidity (%) Winds ( mph kmh ) Pressure ( in mb ) Visibility ( mi km ) Precip ( " mm )
12:13 am 00:13 Mostly Cloudy with Light Snow 28 -2 25 -4 86 86 NNW 16 26 30.18 1022 10 16 0.00 0.00
12:23 am 00:23 Mostly Cloudy with Light Snow 28 -2 25 -4 86 86 NNW 18 30 30.18 1022 10 16 0.00 0.00
12:43 am 00:43 Mostly Cloudy with Light Snow Showers 28 -2 25 -4 86 86 NNW 18 30 30.18 1022 10 16 0.00 0.00
12:58 am 00:58 Mostly Cloudy with Light Snow Showers 28 -2.3 24 -4.2 87 87 NNW 14 22 29.90 1013 10 16 0.00 0.00
1:58 am 01:58 Mostly Cloudy with Light Snow Showers 28 -2.3 24 -4.5 85 85 NNW 16 26 29.91 1013 10 16 0.00 0.00
2:28 am 02:28 Partly Cloudy with Scattered Snow Showers 27 -3 23 -5 86 86 NNW 13 20 30.21 1023 10 16 0.00 0.00
2:58 am 02:58 Partly Cloudy with Isolated Snow Showers 27 -2.8 22 -5.4 83 83 NNW 6 9 29.92 1013 10 16 0.00 0.00
3:10 am 03:10 Clear 27 -3 21 -6 80 80 NNW 5 7 30.24 1024 10 16 0.00 0.00
3:58 am 03:58 Clear 26 -3.1 20 -6.6 77 77 S 3 6 29.92 1013 10 16 0.00 0.00
4:58 am 04:58 Clear 26 -3.2 18 -7.6 72 72 Calm 29.92 1013 10 16 0.00 0.00
5:58 am 05:58 Clear 26 -3.5 18 -7.8 72 72 NW 3 6 29.93 1014 10 16 0.00 0.00
6:58 am 06:58 Sunny 26 -3.1 19 -7 75 75 Calm 29.94 1014 10 16 0.00 0.00
7:58 am 07:58 Sunny 29 -1.4 22 -5.5 74 74 ESE 3 6 29.95 1014 10 16 0.01 0.25
8:58 am 08:58 Sunny 31 -0.7 22 -5.4 71 71 Calm 29.95 1014 10 16 0.00 0.00
9:58 am 09:58 Sunny 33 0.7 22 -5.4 64 64 ESE 8 13 29.93 1014 10 16 0.01 0.25
10:58 am 10:58 Sunny 34 1.1 21 -6 60 60 SE 10 17 29.95 1014 10 16 0.00 0.00
11:58 am 11:58 Sunny 36 2 24 -4.7 62 62 ESE 12 19 29.93 1013 10 16 0.00 0.00
12:58 pm 12:58 Sunny 36 2.4 20 -6.7 51 51 SE 15 24 29.91 1013 10 16 0.00 0.00
1:58 pm 13:58 Sunny 37 2.7 17 -8.3 45 45 SSE 14 22 29.88 1012 10 16 0.00 0.00
2:58 pm 14:58 Sunny 40 4.2 22 -5.7 49 49 SE 15 24 29.85 1011 10 16 0.00 0.00
3:58 pm 15:58 Sunny 40 4.4 22 -5.6 49 49 S 12 19 29.85 1011 10 16 0.00 0.00
4:58 pm 16:58 Mostly Sunny 38 3.6 26 -3.5 60 60 SSE 10 17 29.85 1011 10 16 0.00 0.00
5:58 pm 17:58 Mostly Sunny 38 3.3 26 -3.5 61 61 S 9 15 29.86 1011 10 16 0.00 0.00
6:58 pm 18:58 Sunny 37 2.7 27 -3 66 66 Calm 29.88 1012 10 16 0.00 0.00
7:58 pm 19:58 Clear 36 2.2 26 -3.5 66 66 W 3 6 29.89 1012 10 16 0.00 0.00
8:58 pm 20:58 Mostly Cloudy 37 2.6 24 -4.4 60 60 WNW 5 7 29.90 1012 10 16 0.00 0.00
9:58 pm 21:58 Mostly Cloudy 37 2.7 25 -4 62 62 WNW 7 11 29.89 1012 10 16 0.00 0.00
10:58 pm 22:58 Clear 38 3.1 23 -4.9 56 56 Calm 29.89 1012 10 16 0.00 0.00
11:58 pm 23:58 Clear 36 2.3 24 -4.2 63 63 WNW 7 11 29.90 1013 10 16 0.00 0.00

Powered by AerisWeather